Location: Gammelsbach
(49.5261°N, 8.9630°E)
Time: 15:22:19
(UTC+00:00)

Cosmos 1943 - Pass Details

Date: 17 June 2025
Orbit: 830 x 849 km, 71.0° (Epoch: 19 July)

Event Time Altitude Azimuth Distance (km) Brightness Sun altitude
Rises 21:04:06 0° 332° (NNW) 3,425 8.6 -10.6°
Reaches altitude 10° 21:06:35 10° 335° (NNW) 2,487 7.2 -10.8°
Maximum altitude 21:12:17 66° 58° (ENE) 929 3.4 -11.3°
Enters shadow 21:17:00 15° 139° (SE) 2,128 4.7 -11.7°
